Location: Cortada Guamacho
(10.5667°N, 67.0833°W)
Time: 03:28:50
(UTC+00:00)

Cosmos 2228 Rocket - Pass Details

Date: 06 July 2022
Orbit: 618 x 651 km, 82.5° (Epoch: 14 August)

Event Time Altitude Azimuth Distance (km) Brightness Sun altitude
Rises 08:26:40 0° 344° (NNW) 2,920 6.7 -23.9°
Reaches altitude 10° 08:28:59 10° 337° (NNW) 2,018 5.8 -23.4°
Enters shadow 08:31:26 28° 316° (NW) 1,190 4.3 -22.9°
